Weather in Tsingaly

Russia / Khanty-Mansi Autonomous Okrug — Yugra     60°10′35″N   69°42′18″E
temp.,
°C
wind,
m/s
gust,
m/s
humid.,
%
clouds,
%
prec.,
mm/h
press.,
hPa
HPBL,
m
18 august, thu
thu1823:00+6nnw388664 0.1 1020160
02:00+4n279295 0.0 1020158
05:00+7nw2790100 0.1 1021449
08:00+7nw2595100 0.3 1022370
11:00+9nw2380100 0.5 1023710
14:00+10nnw247892 0.2 1024736
17:00+12n3566100 0.3 10241220
20:00+10nw2584100 0.0 1025158
19 august, fri
fri1923:00+9nw2693100 0.0 1025194
02:00+10nw31190100 0.0 1024389
05:00+10nw31088100 0.0 1024338
08:00+10nw3995100 0.4 1024366
11:00+10nw3897100 1.5 1024460
14:00+10nnw2896100 1.1 1023423
17:00+10nnw1194100 1.6 102338
20:00+10wnw1193100 0.3 102310
20 august, sat
sat2023:00+10sw1297100 2.3 102253
02:00+10ssw2597100 0.1 1022135
05:00+10ssw2697100 0.1 1021173
08:00+11ssw269899 2.7 1021231
11:00+14ssw3490100 2.7 1021458
14:00+14sw1399100 0.6 1022212
17:00+11nne51196100 0.9 1023528
20:00+11n499595 0.0 1025528
21 august, sun
sun2123:00+10n2895100 0.0 1026262
02:00+9n28975 0.0 1026209
05:00+6n26965 0.0 1027114
08:00+10n377540 0.0 1028341
11:00+14n464496 0.0 1028950
14:00+17nne344048 0.0 10271186
17:00+17nne344589 0.0 10271220
20:00+11nne22675 0.0 102710
22 august, mon
mon2223:00+8ne11695 0.0 102810
02:00+8n00695 0.0 102810
05:00+7w116838 0.0 102910
08:00+14w115351 0.0 1030167
11:00+19w224151 0.0 1029731
14:00+22wnw234082 0.0 10291144
17:00+19nnw236098 0.0 1029143
20:00+16wnw116557 0.0 102812